User: anonymous   Login
Location: Unspecified
(0.0000°N, 0.0000°E)
Time: 23:23:36
(UTC+00:00)
Language:

OPTUS 1C - Orbit

View from above orbital plane
View from above orbital plane
View from above satellite
View from above satellite

Ground track
Ground track

The orbit data is extracted from the following two-line orbital elements,

1 27831U 03028B   18109.78023840 -.00000157  00000-0  00000+0 0  9998
2 27831   0.0504 135.8523 0002373 256.3710 252.5027  1.00271741 54430
Epoch (UTC): 19 April 2018 18:43:32
Eccentricity: 0.0002373
inclination: 0.0504°
perigee height: 35776 km
apogee height: 35796 km
right ascension of ascending node: 135.8523°
argument of perigee: 256.3710°
revolutions per day: 1.00271741
mean anomaly at epoch: 252.5027°
orbit number at epoch: 5443

The dashed part of the orbit path shows where the satellite is in the earth's shadow,  

DLR